Torna al catalogo

STARLINK-35010

AttivoComunicazioniSSO
NORAD 65281·PAYLOAD·🇺🇸 United States

Lanciato Aug 22, 2025 da Vandenberg Space Force Base

Loading…

Prossimi Passaggi (prossime 24 ore)

TLE

AggiornatoSource: CelesTrak SupGP

Epoca: Sep 14, 2026, 23:09 UTC

1 65281C 25184J   26257.96506944  .00043619  00000+0  13543-2 0  2574
2 65281  97.2839 306.0546 0000987  90.0537 101.6594 15.33410833    12

Traccia STARLINK-35010 in tempo reale con AllMySat

Download on the App Store